TimeCST,TemperatureF,Dew PointF,Humidity,Sea Level PressureIn,VisibilityMPH,Wind Direction,Wind SpeedMPH,Gust SpeedMPH,PrecipitationIn,Events,Conditions,WindDirDegrees,DateUTC
12:53 AM,39.9,24.1,53,30.25,7.0,Calm,Calm,-,N/A,,Partly Cloudy,0,2013-03-07 06:53:00
1:53 AM,39.0,24.1,55,30.26,7.0,Calm,Calm,-,N/A,,Clear,0,2013-03-07 07:53:00
2:53 AM,35.1,25.0,67,30.25,7.0,ESE,3.5,-,N/A,,Partly Cloudy,110,2013-03-07 08:53:00
3:53 AM,34.0,24.1,67,30.24,8.0,East,3.5,-,N/A,,Clear,80,2013-03-07 09:53:00
4:53 AM,37.0,25.0,62,30.22,10.0,SE,5.8,-,N/A,,Clear,130,2013-03-07 10:53:00
5:53 AM,30.9,24.1,76,30.23,10.0,Calm,Calm,-,N/A,,Clear,0,2013-03-07 11:53:00
6:53 AM,32.0,25.0,75,30.24,10.0,Calm,Calm,-,N/A,,Clear,0,2013-03-07 12:53:00
7:53 AM,41.0,26.1,55,30.24,10.0,SSE,5.8,-,N/A,,Clear,160,2013-03-07 13:53:00
8:53 AM,46.9,25.0,42,30.25,10.0,South,8.1,-,N/A,,Clear,170,2013-03-07 14:53:00
9:53 AM,51.1,25.0,36,30.23,10.0,SSE,13.8,20.7,N/A,,Clear,160,2013-03-07 15:53:00
10:53 AM,55.9,24.1,29,30.21,10.0,South,16.1,21.9,N/A,,Clear,170,2013-03-07 16:53:00
11:53 AM,61.0,24.1,24,30.19,10.0,South,12.7,21.9,N/A,,Clear,170,2013-03-07 17:53:00
12:53 PM,64.0,21.9,20,30.16,10.0,South,16.1,26.5,N/A,,Clear,180,2013-03-07 18:53:00
1:53 PM,64.9,21.9,19,30.13,10.0,SSE,13.8,-,N/A,,Clear,160,2013-03-07 19:53:00
2:53 PM,66.9,21.9,18,30.12,10.0,SSE,10.4,21.9,N/A,,Clear,160,2013-03-07 20:53:00
3:53 PM,66.9,23.0,19,30.10,10.0,South,16.1,24.2,N/A,,Clear,170,2013-03-07 21:53:00
4:53 PM,66.0,24.1,20,30.08,10.0,South,13.8,-,N/A,,Clear,170,2013-03-07 22:53:00
5:53 PM,64.0,23.0,21,30.09,10.0,South,12.7,-,N/A,,Clear,170,2013-03-07 23:53:00
6:53 PM,60.1,26.1,27,30.10,10.0,SSE,8.1,-,N/A,,Clear,160,2013-03-08 00:53:00
7:53 PM,59.0,26.1,28,30.11,10.0,SSE,9.2,-,N/A,,Clear,160,2013-03-08 01:53:00
8:53 PM,57.0,27.0,32,30.13,10.0,South,9.2,-,N/A,,Clear,170,2013-03-08 02:53:00
9:53 PM,55.9,27.0,33,30.13,10.0,SSE,8.1,-,N/A,,Clear,160,2013-03-08 03:53:00
10:53 PM,54.0,28.0,37,30.14,10.0,SSE,6.9,-,N/A,,Clear,160,2013-03-08 04:53:00